Regional Weather Roundup
Issued by NWS

Home | Current Version | Previous Version | Graphics & Text | Print | Product List | Glossary On
Versions: 1 2 3 4 5 6 7 8 9 10 11 12 13 14 15 16 17 18 19 20 21 22 23 24 25 26 27 28 29 30 31 32 33 34 35 36 37 38 39 40 41 42 43 44 45 46 47 48 49 50
000
ASUS43 KOAX 161402
RWRNE

WEATHER ROUNDUP FOR NEBRASKA
NATIONAL WEATHER SERVICE OMAHA NE
800 AM CST TUE JAN 16 2018

NOTES: SATELLITE DATA IS BEING USED TO AUGMENT CLOUD COVER ABOVE
       12000 FEET.
       "FAIR" INDICATES FEW OR NO CLOUDS BELOW 12,000 FEET WITH NO
       SIGNIFICANT WEATHER AND/OR OBSTRUCTIONS TO VISIBILITY.


NEZ001>004-019>022-054>056-161500-
NEBRASKA PANHANDLE

CITY           SKY/WX    TMP DP  RH WIND       PRES   REMARKS
SCOTTSBLUFF    CLEAR     -9 -15  75 N5        30.54F WCI -20
ALLIANCE       CLEAR    -14 -20  74 CALM      30.53F
CHADRON        CLEAR    -13 -20  71 CALM      30.57F
GORDON         FAIR     -15 -20  78 CALM      30.55F
KIMBALL        CLEAR     -3  -8  77 W6        30.47S WCI -15
SIDNEY         CLEAR    -11 -16  78 W8        30.52F WCI -28
$$

NEZ057>060-069>072-079>082-161500-
SOUTHWEST NEBRASKA

CITY           SKY/WX    TMP DP  RH WIND       PRES   REMARKS
NORTH PLATTE   CLEAR     -5 -13  68 NW6       30.67F WCI -18
IMPERIAL       CLEAR     -4  -9  79 NW10      30.63F WCI -21
LEXINGTON      CLEAR     -3 -10  71 NW7       30.70S WCI -17
MCCOOK         CLEAR     -3 -11  68 NW8       30.71S WCI -18
OGALLALA       PTCLDY    -6 -12  77 W3        30.63F
$$

NEZ005>010-023>029-035>040-094-161500-
NORTH CENTRAL NEBRASKA

CITY           SKY/WX    TMP DP  RH WIND       PRES   REMARKS
VALENTINE      CLEAR     -9 -16  71 W8        30.67S WCI -25
AINSWORTH      CLEAR    -10 -15  77 W7        30.66F WCI -25
BROKEN BOW     CLEAR     -7 -15  68 N9        30.68R WCI -24
O`NEILL        PTCLDY    -6 -11  78 NW10      30.72F WCI -24
ORD            PTCLDY    -7 -13  75 NW10      30.73R WCI -25
THEDFORD       PTCLDY    -8 -15  74 W3        30.65S
$$

NEZ041-046>049-061>064-073>077-083>087-161500-
SOUTH CENTRAL NEBRASKA

CITY           SKY/WX    TMP DP  RH WIND       PRES   REMARKS
GRAND ISLAND   CLOUDY     0  -4  83 NW13      30.72S WCI -18
AURORA         CLOUDY     2  -4  77 N20       30.71S WCI -19
HASTINGS       CLOUDY     0  -6  76 NW14      30.72R WCI -19
HEBRON         CLOUDY    -2  -8  76 NW6       30.75S WCI -14
HOLDREGE       CLOUDY    -4  -9  78 N6        30.70S WCI -16
KEARNEY        CLOUDY    -6 -12  75 NW8       30.73R WCI -21
YORK           MOCLDY     0  -2  92 N9        30.73S WCI -16
$$

NEZ011>018-030>034-042>045-161500-
NORTHEAST NEBRASKA

CITY           SKY/WX    TMP DP  RH WIND       PRES   REMARKS
NORFOLK        CLOUDY    -1  -6  79 NW18      30.72S WCI -22
ALBION         CLOUDY     0  -6  76 NW12G20   30.73R WCI -17
BLAIR          CLOUDY    -1  -7  76 NW15      30.71S WCI -21
COLUMBUS       CLOUDY     0  -5  79 NW14      30.75F WCI -19
FREMONT        CLOUDY    -1  -7  76 NW18G26   30.75S WCI -22
TEKAMAH        CLOUDY    -1  -9  68 NW15      30.77R WCI -21
WAYNE          CLOUDY    -4 -10  74 NW14G22   30.74S WCI -24
$$

NEZ050>053-065>068-078-088>093-161500-
SOUTHEAST NEBRASKA

CITY           SKY/WX    TMP DP  RH WIND       PRES   REMARKS
LINCOLN        CLOUDY     0  -7  72 N14       30.77S WCI -19
OMAHA EPPLEY   CLOUDY    -1  -7  75 NW14      30.76R WCI -20
BEATRICE       CLOUDY    -1  -7  76 NW3       30.75S
FALLS CITY     PTCLDY    -1  -8  72 NW12      30.75R WCI -18
NEBRASKA CITY  CLEAR     -3  -8  79 N12       30.74S WCI -21
PLATTSMOUTH    MOCLDY    -3  -8  77 NW10      30.73S WCI -19
$$

NEZ044-045-051>053-067-161500-
OMAHA AREA

CITY           SKY/WX    TMP DP  RH WIND       PRES   REMARKS
OMAHA EPPLEY   CLOUDY    -1  -7  75 NW14      30.76R WCI -20
BLAIR          CLOUDY    -1  -7  76 NW15      30.71S WCI -21
FREMONT        CLOUDY    -1  -7  76 NW18G26   30.75S WCI -22
MILLARD        CLOUDY     1  -6  71 NW15      30.76S WCI -18
OFFUTT AFB     CLOUDY    -2  -9  70 NW10      30.75S WCI -18
PLATTSMOUTH    MOCLDY    -3  -8  77 NW10      30.73S WCI -19
WAHOO          CLOUDY     0  -7  73 MISG      30.74S
$$




USA.gov is the U.S. government's official web portal to all federal, state and local government web resources and services.